Taos, NM

4:28 PM MST on December 10, 2016 (GMT -0700)
Taos Municipal

Weather History for KSKX - November, 2010

Change the Weather History Date:

Friday, November 19, 2010

  Actual Average Record
Temperature  
Mean Temperature 34 °F -  
Max Temperature 57 °F 47 °F 68 °F (2007)
Min Temperature 12 °F 17 °F 3 °F (2000)
Degree Days  
Heating Degree Days 30    
Moisture  
Dew Point 5 °F    
Average Humidity 33    
Maximum Humidity 53    
Minimum Humidity 14    
Precipitation  
Precipitation 0.00 in - - ()
Sea Level Pressure  
Sea Level Pressure 30.15 in    
Wind  
Wind Speed 4 mph (WSW)    
Max Wind Speed 14 mph    
Max Gust Speed 16 mph    
Visibility 10 miles    
Events      
Averages and records for this station are not official NWS values.
T = Trace of Precipitation, MM = Missing Value Source: NWS Daily Summary

Daily Weather History Graph

Daily Weather History Graph

Search for Another Location

Airport or City:

Trip Planner

Search our weather history database for the weather conditions in past years. The results will help you decide how hot, cold, wet, or windy it might be!

Date:

Astronomy

Nov. 19, 2010 Rise Set
Actual Time 6:44 AM MST 4:51 PM MST
Civil Twilight 6:16 AM MST 5:19 PM MST
Nautical Twilight 5:45 AM MST 5:50 PM MST
Astronomical Twilight 5:14 AM MST 6:21 PM MST
Moon 3:23 PM MST (11/19) 4:45 AM MST (11/19)
Length of Visible Light 11h 02m
Length of Day
10h 07m
Waxing Gibbous, 96% of the Moon is Illuminated
Nov 19
Waxing Gibbous
Nov 21
Full
Nov 28
Last Quarter
Dec 5
New
Dec 13
First Quarter

Hourly Weather History & Observations

Time (MST) Temp. Windchill Dew Point Humidity Pressure Visibility Wind Dir Wind Speed Gust Speed Precip Events Conditions
12:15 AM 24.8 °F - 3.2 °F 40% 30.22 in 10.0 mi Calm Calm - N/A   Clear
12:35 AM 26.6 °F 22.6 °F 3.2 °F 37% 30.21 in 10.0 mi North 3.5 mph - N/A   Clear
12:55 AM 21.2 °F - 1.4 °F 42% 30.20 in 10.0 mi Calm Calm - N/A   Clear
1:15 AM 21.2 °F 14.9 °F 1.4 °F 42% 30.20 in 10.0 mi ENE 4.6 mph - N/A   Clear
1:35 AM 21.2 °F 16.4 °F 1.4 °F 42% 30.20 in 10.0 mi ENE 3.5 mph - N/A   Clear
1:55 AM 21.2 °F 16.4 °F 1.4 °F 42% 30.20 in 10.0 mi ENE 3.5 mph - N/A   Clear
2:15 AM 19.4 °F 12.8 °F 1.4 °F 46% 30.19 in 10.0 mi NE 4.6 mph - N/A   Clear
2:35 AM 19.4 °F 14.3 °F -0.4 °F 42% 30.19 in 10.0 mi NNW 3.5 mph - N/A   Clear
2:55 AM 15.8 °F - -2.2 °F 45% 30.19 in 10.0 mi Calm Calm - N/A   Clear
3:15 AM 14.0 °F 8.2 °F -2.2 °F 49% 30.19 in 10.0 mi North 3.5 mph - N/A   Clear
3:35 AM 17.6 °F 9.3 °F -0.4 °F 45% 30.19 in 10.0 mi North 5.8 mph - N/A   Clear
3:55 AM 17.6 °F - 1.4 °F 49% 30.18 in 10.0 mi Calm Calm - N/A   Clear
4:15 AM 17.6 °F 10.7 °F -2.2 °F 42% 30.19 in 10.0 mi SE 4.6 mph - N/A   Clear
4:35 AM 12.2 °F 4.3 °F -4.0 °F 48% 30.19 in 10.0 mi NW 4.6 mph - N/A   Clear
4:55 AM 14.0 °F 6.5 °F -0.4 °F 53% 30.19 in 10.0 mi North 4.6 mph - N/A   Clear
5:15 AM 15.8 °F - -0.4 °F 49% 30.19 in 10.0 mi Calm Calm - N/A   Clear
5:35 AM 17.6 °F - 1.4 °F 49% 30.19 in 10.0 mi Calm Calm - N/A   Clear
5:55 AM 17.6 °F - 3.2 °F 53% 30.19 in 10.0 mi Calm Calm - N/A   Clear
6:15 AM 19.4 °F - 1.4 °F 46% 30.19 in 10.0 mi Calm Calm - N/A   Clear
6:35 AM 15.8 °F - -0.4 °F 49% 30.19 in 10.0 mi Calm Calm - N/A   Clear
6:55 AM 14.0 °F 6.5 °F -0.4 °F 53% 30.19 in 10.0 mi North 4.6 mph - N/A   Clear
7:15 AM 12.2 °F 1.7 °F -2.2 °F 53% 30.19 in 10.0 mi North 6.9 mph - N/A   Clear
7:35 AM 19.4 °F 10.4 °F 3.2 °F 49% 30.19 in 10.0 mi North 6.9 mph - N/A   Clear
7:55 AM 21.2 °F 14.9 °F 3.2 °F 46% 30.20 in 10.0 mi NNW 4.6 mph - N/A   Clear
8:15 AM 23.0 °F - 3.2 °F 43% 30.19 in 10.0 mi Calm Calm - N/A   Clear
8:35 AM 28.4 °F - 8.6 °F 43% 30.20 in 10.0 mi Calm Calm - N/A   Clear
8:55 AM 33.8 °F - 8.6 °F 35% 30.20 in 10.0 mi Calm Calm - N/A   Clear
9:15 AM 37.4 °F 34.9 °F 8.6 °F 30% 30.20 in 10.0 mi ESE 3.5 mph - N/A   Clear
9:35 AM 41.0 °F - 10.4 °F 29% 30.19 in 10.0 mi Calm Calm - N/A   Clear
9:55 AM 44.6 °F 43.1 °F 10.4 °F 25% 30.19 in 10.0 mi East 3.5 mph - N/A   Clear
10:15 AM 46.4 °F 45.2 °F 12.2 °F 25% 30.18 in 10.0 mi SE 3.5 mph - N/A   Clear
10:35 AM 48.2 °F - 12.2 °F 24% 30.18 in 10.0 mi WSW 4.6 mph - N/A   Clear
10:55 AM 48.2 °F - 12.2 °F 24% 30.16 in 10.0 mi SW 9.2 mph - N/A   Clear
11:15 AM 51.8 °F - 12.2 °F 21% 30.15 in 10.0 mi SW 8.1 mph - N/A   Clear
11:35 AM 51.8 °F - 12.2 °F 21% 30.14 in 10.0 mi SW 9.2 mph 16.1 mph N/A   Clear
11:55 AM 51.8 °F - 10.4 °F 19% 30.12 in 10.0 mi SW 10.4 mph - N/A   Clear
12:15 PM 53.6 °F - 10.4 °F 18% 30.11 in 10.0 mi SSW 10.4 mph - N/A   Clear
12:35 PM 53.6 °F - 10.4 °F 18% 30.10 in 10.0 mi SW 9.2 mph - N/A   Clear
12:55 PM 53.6 °F - 10.4 °F 18% 30.09 in 10.0 mi SSW 10.4 mph - N/A   Clear
1:15 PM 55.4 °F - 10.4 °F 17% 30.08 in 10.0 mi SSW 9.2 mph - N/A   Clear
1:35 PM 55.4 °F - 10.4 °F 17% 30.07 in 10.0 mi WSW 3.5 mph - N/A   Clear
1:55 PM 55.4 °F - 10.4 °F 17% 30.07 in 10.0 mi SSW 9.2 mph - N/A   Clear
2:15 PM 57.2 °F - 10.4 °F 16% 30.06 in 10.0 mi South 8.1 mph - N/A   Clear
2:35 PM 57.2 °F - 10.4 °F 16% 30.06 in 10.0 mi WSW 12.7 mph - N/A   Clear
2:55 PM 57.2 °F - 8.6 °F 14% 30.06 in 10.0 mi WSW 9.2 mph - N/A   Clear
3:15 PM 55.4 °F - 8.6 °F 15% 30.06 in 10.0 mi SW 13.8 mph - N/A   Clear
3:35 PM 55.4 °F - 8.6 °F 15% 30.05 in 10.0 mi SW 13.8 mph - N/A   Clear
3:55 PM 53.6 °F - 6.8 °F 15% 30.06 in 10.0 mi SW 11.5 mph - N/A   Clear
4:15 PM 51.8 °F - 6.8 °F 16% 30.06 in 10.0 mi SW 9.2 mph - N/A   Clear
4:35 PM 48.2 °F - 5.0 °F 17% 30.06 in 10.0 mi SW 10.4 mph - N/A   Clear
4:55 PM 44.6 °F 39.2 °F 5.0 °F 20% 30.06 in 10.0 mi WSW 10.4 mph - N/A   Clear
5:15 PM 42.8 °F 38.0 °F 5.0 °F 21% 30.06 in 10.0 mi WSW 8.1 mph - N/A   Clear
5:35 PM 41.0 °F 38.0 °F 3.2 °F 21% 30.07 in 10.0 mi WNW 4.6 mph - N/A   Clear
5:55 PM 41.0 °F 37.1 °F 3.2 °F 21% 30.08 in 10.0 mi WNW 5.8 mph - N/A   Clear
6:15 PM 37.4 °F 33.8 °F 1.4 °F 22% 30.08 in 10.0 mi North 4.6 mph - N/A   Clear
6:35 PM 37.4 °F 32.8 °F 3.2 °F 24% 30.08 in 10.0 mi North 5.8 mph - N/A   Clear
6:55 PM 37.4 °F 32.1 °F 3.2 °F 24% 30.08 in 10.0 mi NNW 6.9 mph - N/A   Clear
7:15 PM 37.4 °F - 6.8 °F 28% 30.08 in 10.0 mi Calm Calm - N/A   Clear
7:35 PM 30.2 °F 25.4 °F 1.4 °F 29% 30.08 in 10.0 mi ENE 4.6 mph - N/A   Clear
7:55 PM 30.2 °F 24.3 °F 5.0 °F 34% 30.08 in 10.0 mi NE 5.8 mph - N/A   Clear
8:15 PM 30.2 °F 26.7 °F 5.0 °F 34% 30.08 in 10.0 mi NNE 3.5 mph - N/A   Clear
8:35 PM 28.4 °F 21.2 °F 3.2 °F 34% 30.08 in 10.0 mi NNE 6.9 mph - N/A   Clear
8:55 PM 30.2 °F 26.7 °F 6.8 °F 37% 30.08 in 10.0 mi NE 3.5 mph - N/A   Clear
9:15 PM 28.4 °F - 6.8 °F 40% 30.08 in 10.0 mi Calm Calm - N/A   Clear
9:35 PM 32.0 °F - 8.6 °F 38% 30.08 in 10.0 mi Calm Calm - N/A   Clear
9:55 PM 30.2 °F 26.7 °F 6.8 °F 37% 30.08 in 10.0 mi North 3.5 mph - N/A   Clear
10:15 PM 26.6 °F - 3.2 °F 37% 30.08 in 10.0 mi Calm Calm - N/A   Clear
10:35 PM 26.6 °F - 3.2 °F 37% 30.09 in 10.0 mi Calm Calm - N/A   Clear
10:55 PM 28.4 °F 24.6 °F 8.6 °F 43% 30.09 in 10.0 mi North 3.5 mph - N/A   Clear
11:15 PM 24.8 °F - 3.2 °F 40% 30.08 in 10.0 mi Calm Calm - N/A   Clear
11:35 PM 26.6 °F - 5.0 °F 40% 30.08 in 10.0 mi Calm Calm - N/A   Clear
11:55 PM 23.0 °F - 3.2 °F 43% 30.07 in 10.0 mi Calm Calm - N/A   Clear